This demonstration page uses our WeatherBlox Daily Observations layout. Learn more.

Left ArrowRight Arrow

Hourly Observations for December 16, 2021

Temp ( °F °C ) Dew Point ( °F °C ) Humidity (%) Winds ( mph kmh ) Pressure ( in mb ) Visibility ( mi km ) Precip ( " mm )
12:15 am 00:15 Clear 31 -0.5 22 -5.3 70 70 WNW 10 17 29.99 1016 10 16 0.00 0.00
12:35 am 00:35 Clear 30 -1 22 -5.5 72 72 WNW 10 17 29.98 1015 10 16 0.00 0.00
12:55 am 00:55 Clear 29 -1.5 22 -5.5 74 74 WNW 9 15 30.00 1016 10 16 0.00 0.00
1:15 am 01:15 Clear 29 -1.9 22 -5.5 77 77 W 8 13 30.01 1016 10 16 0.00 0.00
1:35 am 01:35 Clear 29 -1.7 22 -5.5 76 76 W 12 19 30.02 1017 10 16 0.00 0.00
1:55 am 01:55 Clear 29 -1.9 22 -5.7 76 76 W 10 17 30.04 1017 10 16 0.00 0.00
2:15 am 02:15 Clear 28 -2 22 -5.7 76 76 W 13 20 30.04 1017 10 16 0.00 0.00
2:35 am 02:35 Clear 28 -2.5 21 -6 77 77 W 9 15 30.06 1018 10 16 0.00 0.00
2:55 am 02:55 Clear 27 -3 21 -6.1 79 79 W 9 15 30.08 1019 10 16 0.00 0.00
3:15 am 03:15 Clear 27 -3 21 -6.3 78 78 W 8 13 30.08 1019 10 16 0.00 0.00
3:35 am 03:35 Clear 26 -3.6 20 -6.5 81 81 W 8 13 30.10 1019 10 16 0.00 0.00
3:55 am 03:55 Clear 25 -4.1 20 -6.8 82 82 W 7 11 30.10 1019 10 16 0.00 0.00
4:15 am 04:15 Clear 24 -4.2 20 -6.9 82 82 WSW 7 11 30.12 1020 10 16 0.00 0.00
4:35 am 04:35 Clear 24 -4.3 19 -7 82 82 W 7 11 30.12 1020 10 16 0.00 0.00
4:55 am 04:55 Clear 25 -3.7 20 -6.6 81 81 W 6 9 30.11 1020 10 16 0.00 0.00
5:15 am 05:15 Clear 26 -3.6 20 -6.7 79 79 W 8 13 30.13 1020 10 16 0.00 0.00
5:35 am 05:35 Clear 25 -3.8 19 -7 79 79 W 8 13 30.13 1020 10 16 0.00 0.00
5:55 am 05:55 Clear 26 -3.5 20 -6.8 78 78 W 9 15 30.14 1021 10 16 0.00 0.00
6:15 am 06:15 Clear 26 -3.2 20 -6.9 76 76 W 8 13 30.15 1021 10 16 0.00 0.00
6:35 am 06:35 Clear 27 -3 19 -7.1 74 74 WSW 7 11 30.14 1021 10 16 0.00 0.00
6:55 am 06:55 Clear 26 -3.3 19 -7.3 74 74 W 6 9 30.17 1022 10 16 0.00 0.00
7:15 am 07:15 Clear 26 -3.6 19 -7.4 75 75 WSW 7 11 30.17 1022 10 16 0.00 0.00
7:35 am 07:35 Clear 24 -4.2 18 -7.6 77 77 W 8 13 30.18 1022 10 16 0.00 0.00
7:55 am 07:55 Sunny 25 -3.9 19 -7.5 76 76 WSW 9 15 30.19 1022 10 16 0.00 0.00
8:15 am 08:15 Sunny 26 -3.4 19 -7.5 74 74 W 9 15 30.19 1022 10 16 0.00 0.00
8:35 am 08:35 Sunny 27 -3 19 -7.2 73 73 W 9 15 30.18 1022 10 16 0.00 0.00
8:55 am 08:55 Sunny 28 -2.2 19 -7 70 70 W 9 15 30.19 1022 10 16 0.00 0.00
9:15 am 09:15 Sunny 30 -1.1 20 -6.9 65 65 W 10 17 30.18 1022 10 16 0.00 0.00
9:35 am 09:35 Sunny 30 -1 19 -7 64 64 WSW 10 17 30.18 1022 10 16 0.00 0.00
9:55 am 09:55 Sunny 31 -0.3 20 -6.8 62 62 WSW 9 15 30.19 1022 10 16 0.00 0.00
10:15 am 10:15 Sunny 32 0.1 20 -6.6 61 61 W 10 17 30.18 1022 10 16 0.00 0.00
10:35 am 10:35 Sunny 33 0.8 21 -6.3 59 59 W 10 17 30.18 1022 10 16 0.00 0.00
10:55 am 10:55 Sunny 35 1.7 22 -5.6 59 59 W 9 15 30.17 1022 10 16 0.00 0.00
11:15 am 11:15 Sunny 37 2.5 21 -6.1 53 53 W 10 17 30.17 1022 10 16 0.00 0.00
11:35 am 11:35 Sunny 38 3.2 21 -6.1 51 51 W 9 15 30.15 1021 10 16 0.00 0.00
11:55 am 11:55 Sunny 38 3.5 20 -6.5 48 48 W 9 15 30.14 1021 10 16 0.00 0.00
12:15 pm 12:15 Sunny 39 4 20 -6.6 46 46 WSW 8 13 30.14 1021 10 16 0.00 0.00
12:35 pm 12:35 Sunny 40 4.5 20 -6.5 45 45 W 7 11 30.12 1020 10 16 0.00 0.00
12:55 pm 12:55 Sunny 40 4.5 20 -6.5 45 45 SW 5 7 30.11 1020 10 16 0.00 0.00
1:15 pm 13:15 Sunny 41 4.8 20 -6.8 43 43 SW 5 7 30.10 1019 10 16 0.00 0.00
1:35 pm 13:35 Sunny 41 5.1 19 -7.1 41 41 WSW 3 6 30.09 1019 10 16 0.00 0.00
1:55 pm 13:55 Sunny 41 5.1 19 -7.5 40 40 Calm 30.07 1018 10 16 0.00 0.00
2:15 pm 14:15 Sunny 42 5.5 17 -8.6 36 36 Calm 30.05 1018 10 16 0.00 0.00
2:35 pm 14:35 Sunny 42 5.5 17 -8.1 37 37 Calm 30.04 1017 10 16 0.00 0.00
2:55 pm 14:55 Sunny 42 5.5 17 -8.6 36 36 Calm 30.04 1017 10 16 0.00 0.00
3:15 pm 15:15 Sunny 42 5.7 17 -8.2 36 36 Calm 30.04 1017 10 16 0.00 0.00
3:35 pm 15:35 Sunny 42 5.8 16 -8.7 35 35 Calm 30.03 1017 10 16 0.00 0.00
3:55 pm 15:55 Sunny 43 5.9 16 -9.1 33 33 S 3 6 30.03 1017 10 16 0.00 0.00
4:15 pm 16:15 Sunny 42 5.5 16 -8.7 36 36 S 5 7 30.03 1017 10 16 0.00 0.00
4:35 pm 16:35 Sunny 40 4.5 19 -7.5 42 42 SSE 3 6 30.04 1017 10 16 0.00 0.00
4:55 pm 16:55 Sunny 37 3 19 -7.4 47 47 SSE 5 7 30.06 1018 10 16 0.00 0.00
5:15 pm 17:15 Clear 36 2.4 19 -7.5 48 48 S 5 7 30.06 1018 10 16 0.00 0.00
5:35 pm 17:35 Clear 35 1.8 18 -8 49 49 S 5 7 30.08 1019 10 16 0.00 0.00
5:55 pm 17:55 Clear 34 0.9 17 -8.3 51 51 SSE 6 9 30.08 1018 10 16 0.00 0.00
6:15 pm 18:15 Clear 31 -0.7 18 -7.6 60 60 SE 8 13 30.09 1019 10 16 0.00 0.00
6:35 pm 18:35 Clear 30 -1 18 -8 59 59 SE 8 13 30.09 1019 10 16 0.00 0.00
6:55 pm 18:55 Clear 30 -1 18 -8 59 59 SE 7 11 30.09 1019 10 16 0.00 0.00
7:15 pm 19:15 Clear 30 -1 17 -8.2 59 59 SE 8 13 30.08 1019 10 16 0.00 0.00
7:35 pm 19:35 Clear 29 -1.8 17 -8.5 61 61 SE 8 13 30.09 1019 10 16 0.00 0.00
7:55 pm 19:55 Clear 29 -1.9 18 -8 63 63 SSE 5 7 30.09 1019 10 16 0.00 0.00
8:15 pm 20:15 Clear 29 -1.5 17 -8.3 60 60 SSE 8 13 30.09 1019 10 16 0.00 0.00
8:35 pm 20:35 Clear 31 -0.8 18 -7.7 60 60 SSE 7 11 30.08 1019 10 16 0.00 0.00
8:55 pm 20:55 Clear 30 -1.2 18 -7.6 62 62 SSE 7 11 30.09 1019 10 16 0.00 0.00
9:15 pm 21:15 Clear 30 -0.9 19 -7.1 63 63 SSE 8 13 30.08 1019 10 16 0.00 0.00
9:35 pm 21:35 Clear 29 -1.9 19 -7.5 66 66 SSE 6 9 30.08 1019 10 16 0.00 0.00
9:55 pm 21:55 Clear 28 -2 19 -7.5 66 66 SE 6 9 30.08 1019 10 16 0.00 0.00
10:15 pm 22:15 Clear 28 -2.1 19 -7.4 67 67 SE 7 11 30.08 1019 10 16 0.00 0.00
10:35 pm 22:35 Clear 28 -2 19 -7.3 67 67 SE 9 15 30.07 1018 10 16 0.00 0.00
10:55 pm 22:55 Clear 29 -1.6 19 -7.1 66 66 SE 10 17 30.07 1018 10 16 0.00 0.00
11:15 pm 23:15 Clear 29 -1.8 19 -7.3 66 66 SE 8 13 30.08 1019 10 16 0.00 0.00
11:35 pm 23:35 Clear 28 -2.5 19 -7.3 70 70 SE 9 15 30.09 1019 10 16 0.00 0.00
11:55 pm 23:55 Clear 28 -2.2 19 -7 70 70 SE 10 17 30.09 1019 10 16 0.00 0.00

Powered by AerisWeather